Coolangatta, Australia

9:48 PM AEDT on February 19, 2018 (GMT +1100)
Coolangatta

Weather History for YBCG - March, 2013

Change the Weather History Date:

Saturday, March 9, 2013

  Actual Average Record
Temperature  
Mean Temperature 74 °F -  
Max Temperature 80 °F - - ()
Min Temperature 68 °F - - ()
Cooling Degree Days 9    
Growing Degree Days 24 (Base 50)    
Moisture  
Dew Point 64 °F    
Average Humidity 73    
Maximum Humidity 88    
Minimum Humidity 51    
Precipitation  
Precipitation 0.02 in - - ()
Sea Level Pressure  
Sea Level Pressure 30.06 in    
Wind  
Wind Speed 12 mph ()    
Max Wind Speed 20 mph    
Max Gust Speed 28 mph    
Visibility 5.8 miles    
Events      
T = Trace of Precipitation, MM = Missing Value Source: Averaged Metar Reports

Daily Weather History Graph

Daily Weather History Graph

Search for Another Location

Airport or City:

Trip Planner

Search our weather history database for the weather conditions in past years. The results will help you decide how hot, cold, wet, or windy it might be!

Date:

Astronomy

Mar. 09, 2013 Rise Set
Actual Time 5:43 AM AEST 6:09 PM AEST
Civil Twilight 5:19 AM AEST 6:33 PM AEST
Nautical Twilight 4:51 AM AEST 7:00 PM AEST
Astronomical Twilight 4:23 AM AEST 7:28 PM AEST
Moon 2:48 AM AEST (3/9) 4:08 PM AEST (3/9)
Length of Visible Light 13h 13m
Length of Day
12h 26m
Waning Crescent, 9% of the Moon is Illuminated
Mar 9
Waning Crescent
Mar 12
New
Mar 20
First Quarter
Mar 27
Full
Apr 3
Last Quarter

Hourly Weather History & Observations

Time (AEST) Temp. Heat Index Dew Point Humidity Pressure Visibility Wind Dir Wind Speed Gust Speed Precip Events Conditions
12:00 AM 74 °F - 65 °F 68% 30.09 in - SE 12.7 mph - -  
12:00 AM 73.4 °F - 66.2 °F 78% 30.06 in 6.2 mi SE 12.7 mph - N/A   Mostly Cloudy
12:30 AM 69.8 °F - 64.4 °F 83% 30.06 in 6.2 mi South 6.9 mph - N/A   Mostly Cloudy
1:00 AM 73.4 °F - 66.2 °F 78% 30.06 in 6.2 mi East 13.8 mph - N/A   Overcast
1:30 AM 73.4 °F - 62.6 °F 69% 30.04 in 6.2 mi ESE 15.0 mph - N/A   Overcast
2:00 AM 73.4 °F - 62.6 °F 69% 30.04 in 6.2 mi ESE 16.1 mph - N/A   Overcast
2:30 AM 71.6 °F - 64.4 °F 78% 30.04 in 6.2 mi East 16.1 mph 27.6 mph N/A   Overcast
3:00 AM 70 °F - 65 °F 81% 30.05 in - East 15.0 mph - -   Overcast
3:00 AM 69.8 °F - 66.2 °F 88% 30.04 in 6.2 mi East 15.0 mph - N/A   Overcast
3:32 AM 69.8 °F - 64.4 °F 83% 30.04 in 3.7 mi East 12.7 mph - N/A   Overcast
3:48 AM 69.8 °F - 64.4 °F 83% 30.04 in 6.2 mi East 10.4 mph - N/A   Overcast
4:00 AM 69.8 °F - 64.4 °F 83% 30.04 in 6.2 mi SE 6.9 mph - N/A   Overcast
4:27 AM 69.8 °F - 66.2 °F 88% 30.04 in 3.7 mi South 6.9 mph - N/A   Overcast
4:30 AM 69.8 °F - 66.2 °F 88% 30.04 in 3.1 mi South 6.9 mph - N/A   Overcast
4:59 AM 69.8 °F - 66.2 °F 88% 30.04 in 6.2 mi SSW 5.8 mph - N/A   Overcast
5:00 AM 69.8 °F - 66.2 °F 88% 30.04 in 6.2 mi SSW 5.8 mph - N/A   Overcast
5:30 AM 69.8 °F - 66.2 °F 88% 30.06 in 6.2 mi SSE 6.9 mph - N/A   Overcast
5:59 AM 69.8 °F - 64.4 °F 83% 30.06 in 3.7 mi ESE 15.0 mph - N/A   Overcast
6:00 AM 69 °F - 65 °F 81% 30.08 in 3 mi ESE 15.0 mph - -   Overcast
6:00 AM 69.8 °F - 64.4 °F 83% 30.06 in 3.1 mi ESE 15.0 mph - N/A   Overcast
6:20 AM 69.8 °F - 64.4 °F 83% 30.06 in 6.2 mi East 9.2 mph - N/A   Overcast
6:30 AM 69.8 °F - 64.4 °F 83% 30.06 in 6.2 mi SSE 6.9 mph - N/A   Overcast
7:00 AM 71.6 °F - 66.2 °F 83% 30.09 in 6.2 mi SSW 6.9 mph - N/A   Overcast
7:30 AM 73.4 °F - 68.0 °F 83% 30.09 in 6.2 mi ESE 15.0 mph - N/A   Overcast
8:00 AM 75.2 °F - 64.4 °F 69% 30.09 in 6.2 mi ESE 16.1 mph - N/A   Mostly Cloudy
8:30 AM 77.0 °F - 68.0 °F 74% 30.09 in 6.2 mi ESE 16.1 mph - N/A   Overcast
9:00 AM 76 °F - 63 °F 55% 30.11 in - ESE 17.3 mph - -   Overcast
9:00 AM 77.0 °F - 62.6 °F 61% 30.09 in 6.2 mi ESE 17.3 mph - N/A   Overcast
9:30 AM 78.8 °F - 66.2 °F 65% 30.09 in 6.2 mi ESE 17.3 mph - N/A   Overcast
10:00 AM 77.0 °F - 68.0 °F 74% 30.09 in 6.2 mi East 17.3 mph - N/A   Overcast
10:30 AM 77.0 °F - 68.0 °F 74% 30.09 in 6.2 mi East 16.1 mph - N/A   Mostly Cloudy
11:02 AM 73.4 °F - 66.2 °F 78% 30.09 in 3.7 mi East 18.4 mph - N/A   Overcast
11:13 AM 77.0 °F - 66.2 °F 69% 30.09 in 6.2 mi ESE 16.1 mph - N/A   Overcast
11:30 AM 77.0 °F - 64.4 °F 65% 30.06 in 6.2 mi ESE 16.1 mph - N/A   Overcast
12:00 PM 80 °F - 65 °F 51% 30.07 in - ESE 18.4 mph - -  
12:00 PM 78.8 °F - 64.4 °F 61% 30.06 in 6.2 mi ESE 18.4 mph - N/A   Overcast
12:30 PM 78.8 °F - 66.2 °F 65% 30.04 in 6.2 mi ESE 17.3 mph - N/A   Mostly Cloudy
1:00 PM 78.8 °F - 64.4 °F 61% 30.04 in 6.2 mi ESE 19.6 mph - N/A   Overcast
1:30 PM 78.8 °F - 64.4 °F 61% 30.04 in 6.2 mi ESE 18.4 mph - N/A   Overcast
2:00 PM 78.8 °F - 66.2 °F 65% 30.04 in 6.2 mi ESE 18.4 mph - N/A   Mostly Cloudy
2:30 PM 80.6 °F 82.7 °F 66.2 °F 61% 30.04 in 6.2 mi SE 19.6 mph - N/A   Mostly Cloudy
3:00 PM 78 °F - 63 °F 51% 30.04 in - SE 17.3 mph - -  
3:00 PM 77.0 °F - 62.6 °F 61% 30.04 in 6.2 mi SE 17.3 mph - N/A   Mostly Cloudy
3:30 PM 77.0 °F - 62.6 °F 61% 30.04 in 6.2 mi SE 16.1 mph - N/A   Scattered Clouds
4:00 PM 77.0 °F - 62.6 °F 61% 30.04 in 6.2 mi SE 16.1 mph - N/A   Scattered Clouds
4:30 PM 77.0 °F - 62.6 °F 61% 30.04 in 6.2 mi SE 16.1 mph - N/A   Scattered Clouds
5:00 PM 75.2 °F - 62.6 °F 65% 30.04 in 6.2 mi SE 12.7 mph - N/A   Mostly Cloudy
5:30 PM 75.2 °F - 62.6 °F 65% 30.04 in 6.2 mi SSE 9.2 mph - N/A   Unknown
6:00 PM 75 °F - 62 °F 55% 30.06 in - SSE 11.5 mph - -   Overcast
6:00 PM 75.2 °F - 62.6 °F 65% 30.04 in 6.2 mi SSE 11.5 mph - N/A   Mostly Cloudy
6:30 PM 73.4 °F - 60.8 °F 65% 30.06 in 6.2 mi South 9.2 mph - N/A   Mostly Cloudy
7:00 PM 73.4 °F - 60.8 °F 65% 30.06 in 6.2 mi South 10.4 mph - N/A   Overcast
7:30 PM 71.6 °F - 62.6 °F 73% 30.06 in 6.2 mi SSW 8.1 mph - N/A   Mostly Cloudy
8:00 PM 71.6 °F - 62.6 °F 73% 30.06 in 6.2 mi SSW 8.1 mph - N/A   Mostly Cloudy
8:30 PM 69.8 °F - 62.6 °F 78% 30.09 in 6.2 mi South 4.6 mph - N/A   Mostly Cloudy
9:00 PM 71 °F - 63 °F 68% 30.09 in - SSW 6.9 mph - -  
9:00 PM 69.8 °F - 62.6 °F 78% 30.09 in 6.2 mi SSW 6.9 mph - N/A   Mostly Cloudy
9:30 PM 69.8 °F - 62.6 °F 78% 30.06 in 6.2 mi South 5.8 mph - N/A   Overcast
10:00 PM 69.8 °F - 62.6 °F 78% 30.06 in 6.2 mi South 5.8 mph - N/A   Mostly Cloudy
10:30 PM 69.8 °F - 62.6 °F 78% 30.06 in 6.2 mi SSW 8.1 mph - N/A   Mostly Cloudy
11:00 PM 69.8 °F - 62.6 °F 78% 30.06 in 6.2 mi South 5.8 mph - N/A   Overcast
11:30 PM 71.6 °F - 62.6 °F 73% 30.04 in 6.2 mi SSW 6.9 mph - N/A   Overcast